This is the latest recevied weather packets stored in our database for station/object KC5DAQ-27. If no packets are shown the sender has not sent any weather packets the latest 10 day(s).
| Time | Temp. | Humidity | Pressure | Rain* | Wind** | Luminosity | Snow |
|---|---|---|---|---|---|---|---|
| 1777418432 | 30° C | 73% | 1001.7 hPa | 0 mm | - | 295 W/m² | - |
| 1777418371 | 30° C | 73% | 1001.7 hPa | 0 mm | - | 253 W/m² | - |
| 1777418313 | 30° C | 73% | 1001.8 hPa | 0 mm | - | 200 W/m² | - |
| 1777418252 | 30° C | 73% | 1001.9 hPa | 0 mm | - | 167 W/m² | - |
| 1777418191 | 30° C | 73% | 1001.8 hPa | 0 mm | - | 148 W/m² | - |
| 1777418133 | 30° C | 73% | 1001.9 hPa | 0 mm | - | 142 W/m² | - |
| 1777418072 | 30° C | 72% | 1001.9 hPa | 0 mm | - | 142 W/m² | - |
| 1777418011 | 30° C | 73% | 1002 hPa | 0 mm | - | 144 W/m² | - |
| 1777417951 | 30° C | 73% | 1002.1 hPa | 0 mm | - | 137 W/m² | - |
| 1777417892 | 30° C | 72% | 1002.1 hPa | 0 mm | - | 139 W/m² | - |
| 1777417831 | 30° C | 72% | 1002 hPa | 0 mm | - | 148 W/m² | - |
| 1777417772 | 30° C | 72% | 1002 hPa | 0 mm | - | 164 W/m² | - |
| 1777417712 | 30° C | 72% | 1002.1 hPa | 0 mm | - | 176 W/m² | - |
| 1777417651 | 30° C | 72% | 1001.9 hPa | 0 mm | - | 197 W/m² | - |
| 1777417590 | 30° C | 72% | 1001.9 hPa | 0 mm | - | 243 W/m² | - |
| 1777417529 | 30.56° C | 71% | 1002 hPa | 0 mm | - | 239 W/m² | - |
| 1777417467 | 30.56° C | 71% | 1001.9 hPa | 0 mm | - | 267 W/m² | - |
| 1777417405 | 30.56° C | 71% | 1001.9 hPa | 0 mm | - | 295 W/m² | - |
| 1777417345 | 30.56° C | 71% | 1001.9 hPa | 0 mm | - | 313 W/m² | - |
| 1777417283 | 30.56° C | 71% | 1001.9 hPa | 0 mm | - | 260 W/m² | - |
| 1777417221 | 30.56° C | 71% | 1002 hPa | 0 mm | - | 264 W/m² | - |
| 1777417160 | 30.56° C | 71% | 1002 hPa | 0 mm | - | 287 W/m² | - |
| 1777417098 | 30.56° C | 70% | 1001.8 hPa | 0 mm | - | 287 W/m² | - |
| 1777417037 | 30.56° C | 70% | 1002 hPa | 0 mm | - | 255 W/m² | - |
| 1777416975 | 30.56° C | 70% | 1002 hPa | 0 mm | - | 250 W/m² | - |
* Rain latest hour (hover to see other rain measurements)
** Current wind speed in m/s (hover to see current wind gust speed)